User: anonymous   Login
Location: Unspecified
(0.0000°N, 0.0000°E)
Time: 05:48:10
(UTC+00:00)
Language:

STARLINK-3098 - Orbit

View from above orbital plane
View from above orbital plane
View from above satellite
View from above satellite

Ground track
Ground track

The orbit is defined by the following mean orbital elements,

1 49442U          26145.52280927 +.00000000 +00000-0 +50930-4 0 00000
2 49442  53.2128 224.2048 0001142  95.7405 264.3717 15.08837001    09
Epoch (UTC): 25 May 2026 12:32:50
Eccentricity: 0.0001142
inclination: 53.2128°
perigee height: 539 km
apogee height: 541 km
right ascension of ascending node: 224.2048°
argument of perigee: 95.7405°
revolutions per day: 15.08837001
mean anomaly at epoch: 264.3717°

The dashed part of the orbit path shows where the satellite is in the earth's shadow,  

DLR